DW0805 Weather Reports


time (UTC)temp
F
wind
direction
speed
knots
gust
knots
rain 1hr
in
rain 24hr
in
rain mn
in
humidity
%
barometer
mb
20260508161514 60 172 6.1 12.2 0.00 0.00 0.00 35 1022.4
20260508160514 60 141 6.1 13.9 0.00 0.00 0.00 32 1022.4
20260508154514 60 114 9.6 12.2 0.00 0.00 0.00 31 1022.4
20260508152514 61 85 7.8 14.8 0.00 0.00 0.00 27 1022.4
20260508151514 60 87 10.4 14.8 0.00 0.00 0.00 27 1022.6
20260508145513 61 132 7.0 13.9 0.00 0.00 0.00 28 1022.6
20260508141516 62 124 6.1 14.8 0.00 0.00 0.00 30 1022.7
20260508135514 62 125 7.0 13.0 0.00 0.00 0.00 34 1022.9
20260508133514 62 99 6.1 13.9 0.00 0.00 0.00 34 1022.9
20260508132514 62 97 7.0 13.9 0.00 0.00 0.00 34 1022.9
20260508130513 64 128 5.2 12.2 0.00 0.00 0.00 39 1023.0
20260508122513 63 131 3.5 8.7 0.00 0.00 0.00 39 1023.0
20260508121514 62 141 6.1 11.3 0.00 0.00 0.00 36 1023.1
20260508113515 62 173 5.2 10.4 0.00 0.00 0.00 37 1023.1
20260508111513 62 148 5.2 11.3 0.00 0.00 0.00 38 1023.2
20260508103513 62 144 6.1 10.4 0.00 0.00 0.00 43 1023.1
20260508100513 63 140 4.3 7.8 0.00 0.00 0.00 50 1023.1
20260508095513 62 153 4.3 8.7 0.00 0.00 0.00 52 1023.1
20260508094514 62 172 3.5 8.7 0.00 0.00 0.00 53 1023.1
20260508093513 62 151 2.6 8.7 0.00 0.00 0.00 52 1023.1
20260508090513 61 176 3.5 7.8 0.00 0.00 0.00 56 1023.1
20260508085513 61 158 4.3 7.8 0.00 0.00 0.00 53 1023.1
20260508084513 60 141 4.3 8.7 0.00 0.00 0.00 55 1023.1
20260508083514 60 136 2.6 8.7 0.00 0.00 0.00 56 1023.0
20260508081514 58 110 4.3 7.0 0.00 0.00 0.00 63 1023.0
20260508063513 57 77 3.5 5.2 0.00 0.00 0.00 71 1022.0
20260508050513 45 53 0.0 0.0 0.00 0.00 0.00 94 1021.7
20260508044513 42 53 0.0 0.0 0.00 0.00 0.00 96 1021.6
20260508041514 38 52 0.0 0.0 0.00 0.00 0.00 95 1021.4
20260508033513 36 53 0.0 0.0 0.00 0.00 0.00 94 1021.1
20260508031514 36 53 0.0 0.0 0.00 0.00 0.00 93 1021.0
20260508030513 37 53 0.0 0.0 0.00 0.00 0.00 94 1021.0
20260508024513 37 53 0.0 0.0 0.00 0.00 0.00 94 1020.8
20260508023514 38 53 0.0 0.0 0.00 0.00 0.00 94 1020.8
20260508021514 36 53 0.0 0.0 0.00 0.00 0.00 94 1020.7
20260508020514 35 53 0.0 0.0 0.00 0.00 0.00 93 1020.7
20260508015513 36 53 0.0 0.0 0.00 0.00 0.00 93 1020.7
20260508014514 37 53 0.0 0.0 0.00 0.00 0.00 93 1020.6
20260508011513 36 53 0.0 0.0 0.00 0.00 0.00 92 1020.4
20260508010513 36 53 0.0 0.0 0.00 0.00 0.00 92 1020.5
20260508005513 36 53 0.0 0.0 0.00 0.00 0.00 92 1020.4
20260508004514 36 53 0.0 0.0 0.00 0.00 0.00 92 1020.3
20260508003513 37 53 0.0 0.0 0.00 0.00 0.00 92 1020.3
20260507234513 38 53 0.0 0.0 0.00 0.00 0.00 91 1020.2
20260507233514 38 53 0.0 0.0 0.00 0.00 0.00 91 1020.1
20260507231514 39 53 0.0 0.0 0.00 0.00 0.00 90 1020.1
20260507225513 39 53 0.0 0.0 0.00 0.00 0.00 89 1020.0
20260507223514 39 53 0.0 0.0 0.00 0.00 0.00 88 1019.8
20260507222514 40 53 0.0 0.0 0.00 0.00 0.00 88 1019.8
20260507221510 40 53 0.0 0.0 0.00 0.00 0.00 88 1019.8
20260507220514 40 53 0.0 0.0 0.00 0.00 0.00 87 1019.7
20260507215514 41 53 0.0 0.0 0.00 0.00 0.00 87 1019.7
20260507213513 42 53 0.0 0.9 0.00 0.00 0.00 86 1019.7
20260507204515 45 53 0.9 0.9 0.00 0.00 0.00 81 1019.3
20260507202513 46 53 0.9 4.3 0.00 0.00 0.00 80 1019.1
20260507191514 49 297 0.0 0.0 0.00 0.00 0.00 76 1018.2
20260507190514 50 294 0.0 0.0 0.00 0.00 0.00 75 1018.0
20260507182513 52 298 2.6 6.1 0.00 0.00 0.00 71 1017.7
20260507181514 52 280 2.6 6.1 0.00 0.00 0.00 70 1017.8
20260507180514 53 285 3.5 7.0 0.00 0.00 0.00 68 1017.7
20260507175514 54 329 4.3 7.0 0.00 0.00 0.00 66 1017.7
20260507174513 56 296 4.3 7.0 0.00 0.00 0.00 63 1017.6
20260507170515 60 311 3.5 7.0 0.00 0.00 0.00 50 1017.4
20260507165514 61 339 1.7 6.1 0.00 0.00 0.00 48 1017.3
20260507162514 61 337 3.5 7.0 0.00 0.00 0.00 49 1017.4